This is the latest recevied weather packets stored in our database for station/object N4TLC. If no packets are shown the sender has not sent any weather packets the latest 10 day(s).
| Time | Temp. | Humidity | Pressure | Rain* | Wind** | Luminosity | Snow |
|---|---|---|---|---|---|---|---|
| 1777152521 | 21.11° C | 77% | 1011 hPa | 0 mm | - | 35 W/m² | - |
| 1777152218 | 21.11° C | 77% | 1010 hPa | 0 mm | - | 73 W/m² | - |
| 1777151913 | 21.11° C | 77% | 1010.1 hPa | 0 mm | - | 83 W/m² | - |
| 1777151609 | 20.56° C | 70% | 1010 hPa | 0 mm | - | 98 W/m² | - |
| 1777151306 | 20.56° C | 72% | 1009.7 hPa | 0 mm | - | 113 W/m² | - |
| 1777151000 | 20.56° C | 73% | 1009.8 hPa | 0 mm | - | 112 W/m² | - |
| 1777150695 | 20.56° C | 71% | 1009.7 hPa | 0 mm | - | 101 W/m² | - |
| 1777150391 | 20.56° C | 70% | 1010 hPa | 0.51 mm | - | 79 W/m² | - |
| 1777150088 | 20.56° C | 69% | 1010 hPa | 1.27 mm | - | 67 W/m² | - |
| 1777149783 | 21.11° C | 61% | 1010.2 hPa | 3.56 mm | - | 52 W/m² | - |
| 1777149481 | 22.78° C | 60% | 1010.4 hPa | 3.05 mm | - | 33 W/m² | - |
| 1777149177 | 25.56° C | 50% | 1010.2 hPa | 0.51 mm | - | 17 W/m² | - |
| 1777148876 | 25.56° C | 44% | 1009.5 hPa | 0 mm | - | 17 W/m² | - |
| 1777148574 | 26.11° C | 43% | 1009.5 hPa | 0 mm | - | 39 W/m² | - |
| 1777148269 | 26.11° C | 42% | 1009.5 hPa | 0 mm | - | 50 W/m² | - |
| 1777147966 | 26.11° C | 42% | 1009.5 hPa | 0 mm | - | 62 W/m² | - |
| 1777147662 | 26.11° C | 42% | 1009.5 hPa | 0 mm | - | 69 W/m² | - |
| 1777147357 | 26.11° C | 42% | 1009.6 hPa | 0 mm | - | 64 W/m² | - |
| 1777147053 | 26.67° C | 41% | 1009.5 hPa | 0 mm | - | 65 W/m² | - |
| 1777146750 | 26.67° C | 41% | 1009.5 hPa | 0 mm | - | 76 W/m² | - |
| 1777146445 | 26.67° C | 42% | 1009.7 hPa | 0 mm | - | 93 W/m² | - |
| 1777146143 | 26.67° C | 41% | 1009.7 hPa | 0 mm | - | 122 W/m² | - |
| 1777145842 | 26.67° C | 41% | 1009.7 hPa | 0 mm | - | 133 W/m² | - |
| 1777145539 | 27.22° C | 40% | 1009.8 hPa | 0 mm | - | 146 W/m² | - |
| 1777145234 | 27.22° C | 39% | 1009.9 hPa | 0 mm | - | 165 W/m² | - |
* Rain latest hour (hover to see other rain measurements)
** Current wind speed in m/s (hover to see current wind gust speed)